Dewpoint
74 70 68 70 72 67 72 66 76 74 73 73 72 72 74 71 69 73 70 72 75 70
75 74 70 74 71 69 71 71 71 71 72 72 72 73 74 71 72 73 72 72 72 70
72 74 73 71 72 71 71 70 72 72 72 72 72 72 74 74 74 73 70 67 75 74
71 72 73 72 72 72 71 72 72 74 72 73 72 73 75 76 72 73 73 73 72 74
71 71 71 72 72 73 74 72 72 72 73 73 72 74 75 72 69 71 71 71 72 71
70 70 70 71 72 73 73 73 70 72 75 73 72 74 74 74 73 71 71 71 72 72
70 70 70 72 73 71 74 74 73 73 74 74 73 72 72 73 74 74 72 72 72 72
70 71 71 72 72 72 74 74 74 74 73 73 70 68 73 73 72 75 74 74 74 73
72 73 74 72 72 73 73 74 75 74 74 73 66 63 65 71 72 74 75 74 75 76
67 68 70 73 74 75 74 74 75 75 74 75 75 64 62 65 69 72 74 75 75 73
63 65 67 69 73 74 74 74 75 74 75 76 74 64 62 64 71 71 73 74 75 76
60 61 63 66 67 72 75 76 74 74 74 75 76 64 61 64 70 68 72 73 74 74
61 61 60 61 64 67 71 74 76 74 74 71 75 66 61 63 69 70 68 72 74 66
59 60 62 62 63 64 65 69 73 75 76 75 73 74 60 59 72 69 68 67 67 68
Lifted_Index
-5 -5 -4 -4 -3 -3 -3 -4 -4 -5 -4 -4 -4 -4 -4 -4 -3 -3 -3 -4 -4 -4
-5 -5 -4 -4 -3 -3 -3 -3 -4 -4 -4 -4 -4 -4 -4 -4 -4 -4 -4 -4 -4 -4
-5 -5 -5 -4 -4 -4 -3 -3 -3 -4 -4 -4 -4 -4 -4 -4 -4 -4 -4 -4 -4 -4
-5 -5 -5 -5 -4 -4 -4 -3 -3 -4 -4 -4 -4 -4 -4 -4 -4 -4 -4 -4 -4 -4
-5 -5 -5 -5 -5 -4 -4 -4 -4 -4 -4 -4 -4 -4 -4 -4 -3 -3 -3 -4 -4 -4
-5 -5 -5 -5 -5 -5 -4 -4 -4 -4 -4 -4 -4 -4 -4 -4 -4 -4 -4 -4 -4 -4
-5 -5 -5 -5 -5 -5 -5 -5 -4 -4 -4 -4 -4 -4 -4 -4 -4 -4 -4 -4 -4 -4
-5 -5 -5 -5 -5 -5 -5 -5 -5 -5 -5 -4 -4 -3 -4 -4 -4 -4 -4 -5 -5 -5
-5 -5 -5 -5 -5 -5 -5 -6 -6 -6 -6 -5 -4 -3 -3 -3 -4 -4 -5 -5 -5 -5
-4 -4 -4 -5 -5 -6 -6 -6 -6 -6 -6 -6 -5 -3 -2 -2 -3 -4 -5 -5 -6 -6
-3 -3 -3 -4 -5 -5 -6 -6 -6 -6 -6 -6 -6 -5 -3 -2 -3 -3 -4 -5 -6 -6
-1 -2 -2 -3 -4 -5 -5 -6 -6 -6 -6 -6 -6 -6 -5 -4 -3 -3 -4 -4 -5 -5
2 1 -1 -2 -3 -3 -4 -5 -5 -6 -6 -6 -6 -6 -5 -5 -4 -3 -4 -4 -4 -4
4 3 1 -1 -2 -3 -3 -4 -5 -5 -6 -6 -6 -6 -6 -5 -4 -4 -4 -4 -4 -4